This is the latest recevied weather packets stored in our database for station/object KE6LRO. If no packets are shown the sender has not sent any weather packets the latest 10 day(s).
| Time | Temp. | Humidity | Pressure | Rain* | Wind** | Luminosity | Snow |
|---|---|---|---|---|---|---|---|
| 1777826090 | 17.78° C | 48% | 1019.5 hPa | 0 mm | - | 573 W/m² | - |
| 1777825787 | 16.67° C | 46% | 1019.6 hPa | 0 mm | - | 562 W/m² | - |
| 1777825484 | 16.67° C | 47% | 1019.8 hPa | 0 mm | - | 551 W/m² | - |
| 1777825182 | 16.11° C | 48% | 1019.8 hPa | 0 mm | - | 538 W/m² | - |
| 1777824878 | 15.56° C | 53% | 1019.9 hPa | 0 mm | - | 523 W/m² | - |
| 1777824574 | 15.56° C | 52% | 1019.9 hPa | 0 mm | - | 513 W/m² | - |
| 1777824272 | 15.56° C | 51% | 1019.8 hPa | 0 mm | - | 501 W/m² | - |
| 1777823967 | 15° C | 56% | 1020.2 hPa | 0 mm | - | 487 W/m² | - |
| 1777823664 | 12.78° C | 59% | 1019.9 hPa | 0 mm | - | 475 W/m² | - |
| 1777823361 | 12.78° C | 61% | 1020.3 hPa | 0 mm | - | 462 W/m² | - |
| 1777823059 | 12.22° C | 62% | 1020.2 hPa | 0 mm | - | 448 W/m² | - |
| 1777822757 | 12.78° C | 60% | 1020.4 hPa | 0 mm | - | 433 W/m² | - |
| 1777822455 | 11.67° C | 62% | 1020.4 hPa | 0 mm | - | 411 W/m² | - |
| 1777822152 | 11.67° C | 70% | 1020.4 hPa | 0 mm | - | 406 W/m² | - |
| 1777821849 | 10.56° C | 70% | 1020.5 hPa | 0 mm | - | 391 W/m² | - |
| 1777821546 | 10.56° C | 70% | 1020.4 hPa | 0 mm | - | 371 W/m² | - |
| 1777821244 | 9.44° C | 74% | 1020.5 hPa | 0 mm | - | 335 W/m² | - |
| 1777820940 | 8.89° C | 80% | 1020.4 hPa | 0 mm | - | 310 W/m² | - |
| 1777820637 | 9.44° C | 74% | 1020.5 hPa | 0 mm | - | 276 W/m² | - |
| 1777820333 | 8.89° C | 74% | 1020.4 hPa | 0 mm | - | 241 W/m² | - |
| 1777820031 | 7.78° C | 76% | 1020.5 hPa | 0 mm | - | 216 W/m² | - |
| 1777819728 | 7.22° C | 82% | 1020.7 hPa | 0 mm | - | 193 W/m² | - |
| 1777819426 | 6.67° C | 88% | 1020.7 hPa | 0 mm | - | 174 W/m² | - |
| 1777819123 | 6.67° C | 88% | 1020.8 hPa | 0 mm | - | 157 W/m² | - |
| 1777818820 | 5° C | 93% | 1020.8 hPa | 0 mm | - | 142 W/m² | - |
* Rain latest hour (hover to see other rain measurements)
** Current wind speed in m/s (hover to see current wind gust speed)